Date String (YYYY-MM-DD hh:mm:ss) UTC,Instrument flags,Ambient pressure (hPa),Sample flow (lpm),Bypass flow (lpm),Sample temperature (°C),Ambient temperature (°C),ASC tube jacket temperature (°C),LED temperature (°C),Box temperature (°C),Sample RH (%),Span deviation,Mass concentration (μg/m³),Mass concentration (μg/m³),Mass concentration (μg/m³)
DateTimeUTC,F1_M11,P_M11,Q1_M11,Q2_M11,T1_M11,T2_M11,T3_M11,T4_M11,T5_M11,U1_M11,ZSPAN_M11,X0_M11,X2_M11,X1_M11
2022-02-21 15:00:00,,0812.0,4.99,0.00,22.3,21.7,00.0,31.2,24.1,07.6,0000.0,0001.81,0000.92,0000.61
2022-02-21 15:01:00,,0812.0,4.99,0.00,22.3,21.7,00.0,31.2,24.1,07.6,0000.0,0002.24,0000.89,0000.60
2022-02-21 15:02:00,,0812.1,5.00,0.00,22.3,21.7,00.0,31.2,24.1,07.5,0000.0,0002.30,0000.90,0000.60
2022-02-21 15:03:00,,0812.0,5.01,0.00,22.3,21.7,00.0,31.2,24.1,07.5,0000.0,0002.27,0000.91,0000.60
2022-02-21 15:04:00,,0812.1,5.01,0.00,22.3,21.7,00.0,31.2,24.1,07.5,0000.0,0002.24,0000.89,0000.60
2022-02-21 15:05:00,,0812.1,4.99,0.00,22.3,21.7,00.0,31.2,24.0,07.5,0000.0,0002.24,0000.89,0000.59
2022-02-21 15:06:00,,0812.0,4.99,0.00,22.2,21.7,00.0,31.2,24.0,07.5,0000.0,0002.36,0000.93,0000.59
2022-02-21 15:07:00,,0812.0,5.00,0.00,22.2,21.7,00.0,31.2,24.0,07.4,0000.0,0002.47,0000.95,0000.58
2022-02-21 15:08:00,,0812.0,5.01,0.00,22.2,21.6,00.0,31.2,24.0,07.4,0000.0,0002.44,0000.94,0000.58
2022-02-21 15:09:00,,0812.1,4.99,0.00,22.2,21.6,00.0,31.2,23.9,07.4,0000.0,0002.49,0000.96,0000.57
2022-02-21 15:10:00,,0812.0,5.00,0.00,22.2,21.6,00.0,31.2,23.9,07.4,0000.0,0002.51,0000.96,0000.58
2022-02-21 15:11:00,,0812.1,5.01,0.00,22.2,21.5,00.0,31.2,23.9,07.5,0000.0,0002.51,0001.01,0000.58
2022-02-21 15:12:00,,0812.1,4.99,0.00,22.2,21.5,00.0,31.2,23.9,07.6,0000.0,0001.97,0000.99,0000.59
2022-02-21 15:13:00,,0812.0,4.99,0.00,22.1,21.5,00.0,31.2,23.9,07.5,0000.0,0002.07,0001.00,0000.60
2022-02-21 15:14:00,,0812.1,5.00,0.00,22.1,21.5,00.0,31.2,23.8,07.5,0000.0,0003.36,0001.02,0000.60
2022-02-21 15:15:00,,0812.1,5.01,0.00,22.1,21.5,00.0,31.2,23.8,07.6,0000.0,0003.57,0001.07,0000.61
2022-02-21 15:16:00,,0812.1,5.00,0.00,22.1,21.5,00.0,31.2,23.8,07.6,0000.0,0003.74,0001.08,0000.61
2022-02-21 15:17:00,,0812.1,5.01,0.00,22.1,21.4,00.0,31.2,23.8,07.5,0000.0,0004.34,0001.07,0000.62
2022-02-21 15:18:00,,0812.2,5.00,0.00,22.1,21.4,00.0,31.2,23.8,07.6,0000.0,0004.96,0001.04,0000.61
2022-02-21 15:19:00,,0812.1,5.00,0.00,22.1,21.5,00.0,31.2,23.8,07.9,0000.0,0005.04,0001.08,0000.61
2022-02-21 15:20:00,,0812.1,5.00,0.00,22.1,21.5,00.0,31.2,23.8,07.9,0000.0,0004.81,0001.08,0000.61
2022-02-21 15:21:00,,0812.1,5.00,0.00,22.1,21.5,00.0,31.2,23.8,07.8,0000.0,0004.76,0001.07,0000.61
2022-02-21 15:22:00,,0812.1,5.01,0.00,22.1,21.6,00.0,31.1,23.9,07.8,0000.0,0004.80,0001.05,0000.61
2022-02-21 15:23:00,,0812.1,4.99,0.00,22.1,21.6,00.0,31.2,23.9,07.6,0000.0,0005.00,0001.09,0000.61
2022-02-21 15:24:00,,0812.1,5.00,0.00,22.1,21.5,00.0,31.2,23.9,07.6,0000.0,0004.98,0001.07,0000.62
2022-02-21 15:25:00,,0812.1,5.01,0.00,22.1,21.5,00.0,31.2,23.9,07.7,0000.0,0003.79,0001.03,0000.62
2022-02-21 15:26:00,,0812.1,5.01,0.00,22.1,21.5,00.0,31.2,23.9,07.6,0000.0,0004.29,0001.03,0000.61
2022-02-21 15:27:00,,0812.1,5.00,0.00,22.1,21.5,00.0,31.1,23.9,07.7,0000.0,0004.31,0001.05,0000.62
2022-02-21 15:28:00,,0812.1,4.99,0.00,22.1,21.5,00.0,31.1,23.9,07.6,0000.0,0003.53,0001.02,0000.62
2022-02-21 15:29:00,,0812.1,5.02,0.00,22.1,21.5,00.0,31.1,23.9,07.6,0000.0,0002.89,0001.03,0000.63
2022-02-21 15:30:00,,0812.1,4.99,0.00,22.1,21.5,00.0,31.1,23.9,07.7,0000.0,0002.86,0001.02,0000.64
2022-02-21 15:31:00,,0812.1,5.00,0.00,22.1,21.5,00.0,31.1,23.9,07.6,0000.0,0003.04,0001.03,0000.63
2022-02-21 15:32:00,,0812.1,5.00,0.00,22.1,21.5,00.0,31.1,23.9,07.6,0000.0,0003.19,0001.07,0000.62
2022-02-21 15:33:00,,0812.0,5.01,0.00,22.1,21.5,00.0,31.1,23.9,07.6,0000.0,0003.24,0001.10,0000.63
2022-02-21 15:34:00,,0812.0,5.01,0.00,22.1,21.5,00.0,31.1,23.9,07.7,0000.0,0003.14,0001.09,0000.64
2022-02-21 15:35:00,,0812.1,5.00,0.00,22.1,21.5,00.0,31.1,23.9,07.7,0000.0,0002.85,0001.09,0000.63
2022-02-21 15:36:00,,0812.0,4.99,0.00,22.1,21.6,00.0,31.1,23.9,07.6,0000.0,0002.95,0001.10,0000.64
2022-02-21 15:37:00,,0812.1,5.00,0.00,22.1,21.6,00.0,31.1,23.9,07.5,0000.0,0002.34,0001.08,0000.65
2022-02-21 15:38:00,,0812.0,5.00,0.00,22.1,21.6,00.0,31.1,23.9,07.6,0000.0,0002.17,0001.07,0000.65
2022-02-21 15:39:00,,0812.1,5.00,0.00,22.1,21.6,00.0,31.1,23.9,07.7,0000.0,0002.59,0001.11,0000.66
2022-02-21 15:40:00,,0812.0,4.99,0.00,22.1,21.6,00.0,31.1,23.9,07.6,0000.0,0002.69,0001.13,0000.68
2022-02-21 15:41:00,,0812.1,5.00,0.00,22.1,21.6,00.0,31.1,23.9,07.7,0000.0,0002.86,0001.12,0000.71
2022-02-21 15:42:00,,0812.1,5.01,0.00,22.1,21.6,00.0,31.1,23.9,07.6,0000.0,0003.09,0001.14,0000.74
2022-02-21 15:43:00,,0812.1,5.01,0.00,22.1,21.6,00.0,31.1,23.9,07.6,0000.0,0003.32,0001.14,0000.76
2022-02-21 15:44:00,,0812.0,4.99,0.00,22.1,21.6,00.0,31.1,23.9,07.7,0000.0,0003.35,0001.19,0000.78
2022-02-21 15:45:00,,0811.9,5.00,0.00,22.1,21.6,00.0,31.1,23.9,07.7,0000.0,0003.40,0001.21,0000.80
2022-02-21 15:46:00,,0811.9,5.01,0.00,22.1,21.6,00.0,31.1,23.9,07.7,0000.0,0003.35,0001.21,0000.82
2022-02-21 15:47:00,,0811.9,5.01,0.00,22.1,21.6,00.0,31.1,23.9,07.6,0000.0,0004.13,0001.23,0000.84
2022-02-21 15:48:00,,0811.9,5.00,0.00,22.1,21.6,00.0,31.1,23.9,07.6,0000.0,0005.08,0001.27,0000.85
2022-02-21 15:49:00,,0811.9,5.00,0.00,22.1,21.6,00.0,31.1,24.0,07.8,0000.0,0005.93,0001.30,0000.86
2022-02-21 15:50:00,,0811.9,5.00,0.00,22.2,21.6,00.0,31.1,24.0,07.8,0000.0,0005.66,0001.30,0000.87
2022-02-21 15:51:00,,0811.9,4.99,0.00,22.2,21.6,00.0,31.2,24.0,07.6,0000.0,0005.64,0001.32,0000.87
2022-02-21 15:52:00,,0812.0,5.00,0.00,22.2,21.7,00.0,31.2,24.0,07.6,0000.0,0005.52,0001.34,0000.86
2022-02-21 15:53:00,,0811.9,5.02,0.00,22.2,21.7,00.0,31.2,24.0,07.7,0000.0,0005.28,0001.34,0000.85
2022-02-21 15:54:00,,0811.9,4.99,0.00,22.2,21.7,00.0,31.2,24.0,08.0,0000.0,0005.07,0001.34,0000.84
2022-02-21 15:55:00,,0811.9,4.99,0.00,22.2,21.7,00.0,31.2,24.0,07.8,0000.0,0005.03,0001.29,0000.83
2022-02-21 15:56:00,,0811.9,5.00,0.00,22.2,21.7,00.0,31.2,24.0,07.9,0000.0,0005.36,0001.30,0000.82
2022-02-21 15:57:00,,0812.0,5.02,0.00,22.2,21.7,00.0,31.2,24.0,07.9,0000.0,0005.47,0001.32,0000.82
2022-02-21 15:58:00,,0811.9,5.00,0.00,22.3,21.8,00.0,31.2,24.1,07.7,0000.0,0004.88,0001.32,0000.81
2022-02-21 15:59:00,,0811.8,5.00,0.00,22.3,21.8,00.0,31.2,24.1,07.2,0000.0,0004.47,0001.31,0000.80
